Date String (YYYY-MM-DD hh:mm:ss) UTC,Instrument flags,Ambient pressure (hPa),Sample flow (lpm),Bypass flow (lpm),Sample temperature (°C),Ambient temperature (°C),ASC tube jacket temperature (°C),LED temperature (°C),Box temperature (°C),Sample RH (%),Span deviation,Mass concentration (μg/m³),Mass concentration (μg/m³),Mass concentration (μg/m³)
DateTimeUTC,F1_M11,P_M11,Q1_M11,Q2_M11,T1_M11,T2_M11,T3_M11,T4_M11,T5_M11,U1_M11,ZSPAN_M11,X0_M11,X2_M11,X1_M11
2022-09-13 17:00:00,,0826.2,4.99,0.00,30.3,29.0,00.0,39.0,32.1,12.5,0003.2,0032.36,0022.79,0021.61
2022-09-13 17:01:00,,0826.2,5.00,0.00,30.3,29.0,00.0,39.0,32.1,12.3,0003.2,0032.15,0022.79,0021.67
2022-09-13 17:02:00,,0826.2,4.99,0.00,30.3,29.1,00.0,39.0,32.2,12.2,0003.1,0031.68,0022.64,0021.57
2022-09-13 17:03:00,,0826.2,4.99,0.00,30.4,29.1,00.0,39.0,32.2,12.3,0002.6,0032.26,0022.41,0021.35
2022-09-13 17:04:00,,0826.2,4.99,0.00,30.4,28.2,00.0,39.0,32.2,12.2,0002.2,0032.04,0022.11,0021.06
2022-09-13 17:05:00,,0826.2,5.00,0.00,30.3,26.9,00.0,39.0,32.0,12.4,0002.0,0031.35,0021.90,0020.83
2022-09-13 17:06:00,,0826.2,4.99,0.00,30.3,26.8,00.0,38.9,32.0,12.2,0001.7,0030.72,0021.82,0020.73
2022-09-13 17:07:00,,0826.2,5.00,0.00,30.2,27.0,00.0,38.9,31.8,12.4,0001.3,0030.67,0021.89,0020.79
2022-09-13 17:08:00,,0826.2,5.00,0.00,30.1,27.3,00.0,38.9,31.7,12.1,0001.3,0031.45,0022.40,0021.24
2022-09-13 17:09:00,,0826.1,4.99,0.00,30.1,27.7,00.0,38.8,31.7,12.0,0001.1,0032.51,0022.98,0021.78
2022-09-13 17:10:00,,0826.1,5.01,0.00,30.1,27.9,00.0,38.8,31.8,12.0,0000.5,0033.25,0023.41,0022.19
2022-09-13 17:11:00,,0826.2,5.01,0.00,30.1,28.2,00.0,38.8,31.8,12.0,-000.1,0033.99,0023.77,0022.55
2022-09-13 17:12:00,,0826.1,5.00,0.00,30.1,28.4,00.0,38.8,31.9,12.2,-000.3,0034.30,0024.14,0022.90
2022-09-13 17:13:00,,0826.2,5.00,0.00,30.1,28.5,00.0,38.8,31.9,12.4,-000.3,0035.09,0024.65,0023.36
2022-09-13 17:14:00,,0826.1,5.00,0.00,30.1,28.7,00.0,38.8,31.9,12.6,-000.1,0035.36,0025.37,0024.07
2022-09-13 17:15:00,,0826.2,5.00,0.00,30.1,28.8,00.0,38.8,32.0,12.3,-000.1,0037.72,0026.20,0024.87
2022-09-13 17:16:00,,0826.1,5.00,0.00,30.2,28.9,00.0,38.8,32.0,12.4,-000.1,0038.74,0026.93,0025.59
2022-09-13 17:17:00,,0826.1,5.00,0.00,30.2,29.0,00.0,38.9,32.0,11.7,-000.1,0039.58,0027.43,0026.06
2022-09-13 17:18:00,,0826.1,5.01,0.00,30.2,29.0,00.0,38.9,32.1,11.7,0000.1,0040.36,0027.83,0026.42
2022-09-13 17:19:00,,0826.1,5.01,0.00,30.2,29.1,00.0,38.9,32.1,11.8,-000.0,0040.72,0027.96,0026.55
2022-09-13 17:20:00,,0826.1,4.99,0.00,30.3,29.1,00.0,38.9,32.1,11.5,-000.1,0040.71,0027.84,0026.46
2022-09-13 17:21:00,,0826.2,5.00,0.00,30.3,28.2,00.0,38.9,32.1,12.3,0000.2,0040.68,0027.79,0026.40
2022-09-13 17:22:00,,0826.1,5.00,0.00,30.3,27.0,00.0,38.9,32.0,12.4,0000.9,0040.60,0027.85,0026.45
2022-09-13 17:23:00,,0826.2,5.00,0.00,30.2,26.8,00.0,38.8,32.0,12.8,0000.8,0041.42,0027.93,0026.50
2022-09-13 17:24:00,,0826.2,5.00,0.00,30.1,27.0,00.0,38.8,31.9,12.8,0000.6,0041.62,0028.01,0026.54
2022-09-13 17:25:00,,0826.2,5.01,0.00,30.1,27.3,00.0,38.8,31.7,13.5,0000.8,0041.44,0027.91,0026.41
2022-09-13 17:26:00,,0826.2,4.99,0.00,30.0,27.7,00.0,38.7,31.7,13.3,0000.4,0039.67,0027.62,0026.13
2022-09-13 17:27:00,,0826.2,5.01,0.00,30.0,27.9,00.0,38.7,31.8,12.7,0000.1,0039.15,0027.37,0025.90
2022-09-13 17:28:00,,0826.2,4.99,0.00,30.0,28.2,00.0,38.7,31.8,12.7,0000.6,0038.85,0027.30,0025.84
2022-09-13 17:29:00,,0826.2,5.01,0.00,30.0,28.4,00.0,38.7,31.8,12.8,0000.7,0038.35,0027.16,0025.73
2022-09-13 17:30:00,,0826.2,5.01,0.00,30.0,28.5,00.0,38.7,31.9,12.8,0000.8,0037.81,0026.87,0025.46
2022-09-13 17:31:00,,0826.2,4.99,0.00,30.1,28.7,00.0,38.7,31.9,12.8,0000.7,0037.55,0026.69,0025.25
2022-09-13 17:32:00,,0826.1,5.00,0.00,30.1,28.8,00.0,38.8,31.9,12.7,0001.0,0037.61,0026.52,0025.11
2022-09-13 17:33:00,,0826.1,5.00,0.00,30.1,28.9,00.0,38.8,32.0,12.3,0000.9,0037.91,0026.27,0024.91
2022-09-13 17:34:00,,0826.1,5.00,0.00,30.1,29.0,00.0,38.8,32.0,12.5,0001.0,0036.87,0026.03,0024.70
2022-09-13 17:35:00,,0826.0,5.00,0.00,30.2,29.0,00.0,38.8,32.0,12.9,0001.3,0036.30,0025.62,0024.34
2022-09-13 17:36:00,,0826.0,5.00,0.00,30.2,29.1,00.0,38.8,32.1,12.7,0000.9,0035.45,0025.01,0023.81
2022-09-13 17:37:00,,0826.0,4.99,0.00,30.2,28.8,00.0,38.8,32.1,12.5,0001.5,0035.65,0024.62,0023.40
2022-09-13 17:38:00,,0826.0,5.00,0.00,30.2,27.5,00.0,38.8,32.0,12.6,0001.9,0035.62,0024.34,0023.14
2022-09-13 17:39:00,,0826.0,5.01,0.00,30.2,26.7,00.0,38.8,31.9,12.6,0001.7,0035.17,0024.02,0022.81
2022-09-13 17:40:00,,0826.0,5.01,0.00,30.1,26.9,00.0,38.7,31.9,12.6,0001.9,0035.61,0023.80,0022.63
2022-09-13 17:41:00,,0825.9,4.99,0.00,30.0,27.1,00.0,38.7,31.7,12.9,0001.8,0035.42,0023.58,0022.45
2022-09-13 17:42:00,,0826.0,5.00,0.00,30.0,27.5,00.0,38.7,31.7,13.3,0002.0,0035.16,0023.40,0022.29
2022-09-13 17:43:00,,0825.9,5.01,0.00,30.0,27.8,00.0,38.7,31.7,13.7,0001.9,0034.83,0023.20,0022.12
2022-09-13 17:44:00,,0826.0,4.99,0.00,30.0,28.0,00.0,38.7,31.7,13.9,0001.8,0033.98,0023.10,0021.97
2022-09-13 17:45:00,,0825.9,5.00,0.00,30.0,28.2,00.0,38.7,31.8,13.8,0001.8,0033.58,0022.90,0021.78
2022-09-13 17:46:00,,0825.9,5.01,0.00,30.0,28.4,00.0,38.7,31.8,13.9,0001.7,0033.72,0022.78,0021.64
2022-09-13 17:47:00,,0826.0,4.99,0.00,30.0,28.6,00.0,38.7,31.8,13.9,0002.0,0033.61,0022.69,0021.56
2022-09-13 17:48:00,,0825.9,5.00,0.00,30.0,28.7,00.0,38.7,31.9,14.1,0002.0,0033.00,0022.53,0021.41
2022-09-13 17:49:00,,0825.9,5.00,0.00,30.1,28.8,00.0,38.7,31.9,14.2,0001.8,0032.30,0022.18,0021.08
2022-09-13 17:50:00,,0825.9,5.00,0.00,30.1,28.9,00.0,38.7,32.0,14.2,0001.9,0032.18,0021.87,0020.76
2022-09-13 17:51:00,,0825.9,4.99,0.00,30.1,28.9,00.0,38.8,32.0,14.2,0001.6,0031.38,0021.30,0020.22
2022-09-13 17:52:00,,0825.9,5.01,0.00,30.1,27.9,00.0,38.8,32.0,14.1,0001.7,0031.22,0020.75,0019.69
2022-09-13 17:53:00,,0825.8,5.00,0.00,30.1,26.7,00.0,38.7,31.9,14.6,0002.0,0031.24,0020.33,0019.24
2022-09-13 17:54:00,,0825.8,4.99,0.00,30.0,26.7,00.0,38.7,31.8,15.4,0001.8,0030.72,0019.94,0018.85
2022-09-13 17:55:00,,0825.8,5.00,0.00,30.0,26.9,00.0,38.6,31.7,15.5,0001.8,0030.47,0019.47,0018.42
2022-09-13 17:56:00,,0825.8,5.00,0.00,29.9,27.2,00.0,38.6,31.6,15.1,0001.8,0030.50,0019.04,0017.94
2022-09-13 17:57:00,,0825.8,4.99,0.00,29.9,27.6,00.0,38.6,31.6,15.0,0001.6,0030.50,0018.63,0017.55
2022-09-13 17:58:00,,0825.9,5.02,0.00,29.9,27.9,00.0,38.6,31.6,15.0,0001.5,0030.70,0018.40,0017.31
2022-09-13 17:59:00,,0825.9,5.01,0.00,29.9,28.1,00.0,38.6,31.7,15.0,0001.6,0031.00,0018.29,0017.16
